Flag for Japan Weather past 2 weeks in Suzuka, Japan

Now
78 °F

Warm.


Feels Like: 81 °F
Forecast: 72 / 86 °F
Wind: 8 mph from Southeast

Location: Tsu

Current Time: Jul 29, 2014 at 12:43:31 AM

Latest Report: Jul 29, 2014 at 12:00 AM


Visibility: N/A

Pressure: 29.85 "Hg

Humidity: 77%

Dew point: 71 °F

Location of SuzukaLocation

Historic Weather in Suzuka — Graph

°F

Suzuka temperature yesterday

Maximum temperature yesterday: 88 °F (at 1:00 PM)
Minimum temperature yesterday: 73 °F (at 6:00 AM)
Average temperature yesterday: 81 °F

Past Weeks' High & Low Weather Summary

 TemperatureHumidityPressure
High96 °F (Jul 25, 12:00 PM)97% (Jul 14, 7:00 AM)29.95 "Hg (Jul 14, 7:00 AM)
Low72 °F (Jul 20, 12:00 AM)44% (Jul 28, 11:00 AM)29.67 "Hg (Jul 14, 1:00 AM)
Average83 °F71%29.83 "Hg
* Reported Jul 13 11:00 PM — Jul 28 11:00 PM, Suzuka, Weather by CustomWeather, © 2014

Note: Actual official high and low records may vary slightly from our data, if they occured in-between our weather recording intervals... More about our weather records

Advertising

Suzuka weather history for previous 24 hours

 ConditionsComfort  
Time TempWeatherWind HumidityBarometerVisibility
11:00 PM
Jul 28
80 °FWarm.5 mph69%29.85 "HgN/A
10:00 PM80 °FWarm.9 mph68%29.84 "HgN/A
9:00 PM81 °FOvercast.10 mph66%29.83 "Hg12 mi
8:00 PM81 °FWarm.12 mph69%29.81 "HgN/A
7:00 PM83 °FWarm.12 mph54%29.79 "HgN/A
6:00 PM85 °FWarm.12 mph55%29.77 "HgN/A
5:00 PM86 °FWarm.9 mph55%29.75 "HgN/A
4:00 PM87 °FWarm.8 mph52%29.75 "HgN/A
3:00 PM87 °FScattered clouds.8 mph51%29.76 "Hg25 mi
2:00 PM87 °FWarm.9 mph52%29.76 "HgN/A
1:00 PM88 °FWarm.3 mph45%29.77 "HgN/A
12:00 PM86 °FWarm.8 mph44%29.78 "HgN/A
11:00 AM86 °FWarm.8 mph44%29.78 "HgN/A
10:00 AM84 °FWarm.9 mph49%29.80 "HgN/A
9:00 AM82 °FPassing clouds.9 mph56%29.81 "Hg25 mi
8:00 AM79 °FWarm.9 mph61%29.80 "HgN/A
7:00 AM77 °FWarm.7 mph66%29.81 "HgN/A
6:00 AM73 °FMild.8 mph76%29.79 "HgN/A
5:00 AM74 °FMild.6 mph73%29.79 "HgN/A
4:00 AM74 °FMild.7 mph71%29.77 "HgN/A
3:00 AM74 °FMild.9 mph74%29.75 "HgN/A
2:00 AM74 °FMild.9 mph72%29.75 "HgN/A
1:00 AM75 °FMild.7 mph70%29.75 "HgN/A
12:00 AM76 °FMild.8 mph69%29.75 "HgN/A
Weather by CustomWeather, © 2014

See weather overviewHow to use our weather pages